FW1492 Weather Reports


time (UTC)temp
C
wind
direction
speed
KPH
gust
KPH
rain 1hr
cm
rain 24hr
cm
rain mn
cm
humidity
%
barometer
mb
20260906211526 21 295 0.0 0.0 0.00 0.05 0.00 76 1016.6
20260906210033 21 355 0.0 3.2 0.00 0.05 0.00 76 1016.6
20260906204525 20 18 0.0 1.6 0.00 0.05 0.00 77 1016.5
20260906203025 21 355 0.0 8.0 0.00 0.05 0.00 73 1016.3
20260906201553 21 331 0.0 4.8 0.00 0.05 0.00 75 1016.3
20260906200022 21 299 0.0 4.8 0.00 0.05 0.00 74 1016.5
20260906194522 20 323 1.6 6.4 0.00 0.05 0.00 74 1016.3
20260906193020 20 318 0.0 4.8 0.00 0.05 0.00 76 1016.2
20260906191521 21 328 0.0 4.8 0.00 0.05 0.00 75 1016.3
20260906190021 21 356 1.6 4.8 0.00 0.05 0.00 76 1016.4
20260906184515 20 250 1.6 4.8 0.00 0.05 0.00 76 1016.3
20260906183016 20 308 0.0 6.4 0.00 0.05 0.00 79 1016.4
20260906181528 20 292 1.6 4.8 0.00 0.05 0.00 78 1016.4
20260906180011 20 319 0.0 3.2 0.00 0.05 0.00 79 1016.7
20260906174510 20 316 0.0 4.8 0.00 0.05 0.00 79 1016.5
20260906173008 20 304 1.6 4.8 0.00 0.05 0.00 80 1016.7
20260906171507 20 41 0.0 4.8 0.00 0.05 0.00 81 1016.7
20260906170005 19 271 0.0 4.8 0.00 0.05 0.00 81 1016.8
20260906164508 19 352 1.6 4.8 0.00 0.05 0.00 81 1016.7
20260906163002 19 330 0.0 6.4 0.00 0.05 0.00 83 1016.6
20260906161604 18 339 0.0 6.4 0.00 0.05 0.00 83 1016.8
20260906160057 18 54 0.0 6.4 0.00 0.05 0.00 86 1016.9
20260906154555 18 326 1.6 6.4 0.00 0.05 0.00 85 1017.1
20260906153107 18 17 1.6 8.0 0.00 0.05 0.00 87 1017.1
20260906151552 17 27 1.6 9.7 0.00 0.05 0.00 86 1017.2
20260906150050 17 308 1.6 6.4 0.00 0.05 0.00 90 1017.0
20260906144558 17 34 0.0 6.4 0.00 0.05 0.00 89 1017.0
20260906143044 17 304 1.6 8.0 0.00 0.05 0.00 92 1016.8
20260906141542 17 352 1.6 6.4 0.00 0.05 0.00 93 1016.7
20260906140048 16 299 0.0 3.2 0.00 0.05 0.00 95 1016.5
20260906134543 16 33 0.0 3.2 0.00 0.05 0.00 96 1016.6
20260906133049 16 344 0.0 4.8 0.00 0.05 0.00 96 1016.5
20260906131538 16 287 0.0 3.2 0.00 0.05 0.00 96 1016.5
20260906130108 15 328 1.6 6.4 0.00 0.05 0.00 97 1016.3
20260906124535 15 302 0.0 4.8 0.00 0.05 0.00 98 1016.4
20260906123039 15 98 0.0 3.2 0.00 0.05 0.00 98 1016.2
20260906121544 15 304 0.0 4.8 0.00 0.05 0.00 99 1016.1
20260906120032 14 276 0.0 1.6 0.00 0.05 0.00 98 1016.0
20260906114535 14 330 0.0 1.6 0.00 0.05 0.00 98 1015.7
20260906113028 13 297 0.0 1.6 0.00 0.05 0.00 98 1015.6
20260906111528 13 295 0.0 0.0 0.00 0.05 0.00 98 1015.5
20260906110027 13 295 0.0 0.0 0.00 0.05 0.00 97 1015.4
20260906104524 13 295 0.0 0.0 0.00 0.05 0.00 97 1015.0
20260906103025 13 295 0.0 0.0 0.00 0.05 0.00 97 1014.9
20260906101522 13 295 0.0 0.0 0.00 0.05 0.00 96 1014.8
20260906100022 13 295 0.0 0.0 0.00 0.05 0.00 96 1014.6
20260906094517 14 295 0.0 0.0 0.00 0.05 0.00 96 1014.5
20260906093032 14 295 0.0 0.0 0.00 0.05 0.00 95 1014.2
20260906091521 14 295 0.0 0.0 0.00 0.05 0.00 95 1014.1
20260906090016 14 295 0.0 1.6 0.00 0.05 0.00 94 1013.7
20260906084515 15 343 0.0 0.0 0.00 0.05 0.00 94 1013.6
20260906083011 15 343 0.0 0.0 0.00 0.05 0.00 93 1013.7
20260906081517 15 342 0.0 1.6 0.00 0.05 0.00 93 1013.6
20260906080009 15 313 0.0 0.0 0.00 0.05 0.00 92 1013.7
20260906074508 15 313 0.0 0.0 0.00 0.05 0.00 92 1013.5
20260906073013 15 313 0.0 1.6 0.00 0.05 0.00 92 1013.6
20260906071506 15 310 0.0 0.0 0.00 0.05 0.00 92 1013.5
20260906070003 16 309 0.0 0.0 0.00 0.05 0.00 92 1013.6
20260906064502 16 309 0.0 0.0 0.00 0.05 0.00 92 1013.7
20260906063001 16 15 0.0 4.8 0.00 0.05 0.00 92 1013.7
20260906061629 16 56 0.0 1.6 0.00 0.05 0.00 92 1013.7
20260906060056 16 335 0.0 1.6 0.00 0.05 0.00 92 1013.9
20260906054554 16 335 0.0 1.6 0.00 0.05 0.00 91 1014.1
20260906053057 16 27 0.0 4.8 0.00 0.05 0.00 91 1014.0
20260906051552 16 323 0.0 0.0 0.00 0.05 0.00 91 1014.1
20260906050107 16 323 0.0 1.6 0.00 0.05 0.00 91 1014.2
20260906044550 16 323 0.0 0.0 0.00 0.05 0.00 91 1014.2
20260906043104 16 289 0.0 1.6 0.00 0.05 0.00 92 1014.2
20260906041547 16 309 0.0 0.0 0.00 0.05 0.00 92 1014.1
20260906040105 16 305 0.0 0.0 0.00 0.05 0.00 93 1014.3
20260906034543 16 305 0.0 1.6 0.00 0.05 0.05 93 1014.2
20260906033044 16 345 0.0 0.0 0.00 0.05 0.05 94 1014.0
20260906031542 16 345 0.0 1.6 0.00 0.05 0.05 94 1014.0
20260906030041 16 345 0.0 1.6 0.00 0.05 0.05 94 1013.7
20260906024541 16 35 0.0 0.0 0.00 0.05 0.05 94 1014.0
20260906023057 16 35 0.0 0.0 0.00 0.05 0.05 93 1013.8
20260906021540 16 35 0.0 0.0 0.00 0.05 0.05 93 1013.9
20260906020038 16 35 0.0 0.0 0.00 0.05 0.05 94 1013.8
20260906014549 16 35 0.0 0.0 0.00 0.05 0.05 94 1013.8
20260906013036 17 35 0.0 0.0 0.00 0.05 0.05 94 1013.6
20260906011544 17 35 0.0 0.0 0.00 0.05 0.05 94 1013.4
20260906010033 17 35 0.0 0.0 0.03 0.05 0.05 94 1013.4
20260906004533 17 35 0.0 0.0 0.05 0.05 0.05 93 1013.3
20260906003031 17 35 0.0 0.0 0.05 0.05 0.05 93 1013.1
20260906001531 17 35 0.0 0.0 0.05 0.05 0.05 91 1012.9
20260906000030 18 229 0.0 6.4 0.03 0.03 0.03 89 1013.1
20260905234527 19 8 3.2 9.7 0.00 0.00 0.00 88 1012.7
20260905233027 19 349 0.0 0.0 0.00 0.00 0.00 85 1012.4
20260905231525 20 349 0.0 0.0 0.00 0.00 0.00 83 1012.5
20260905230028 20 308 0.0 0.0 0.00 0.00 0.00 81 1012.5
20260905224533 20 304 0.0 3.2 0.00 0.00 0.00 80 1012.3
20260905223032 20 308 0.0 1.6 0.00 0.00 0.00 81 1012.2
20260905221523 21 314 0.0 1.6 0.00 0.00 0.00 80 1012.0
20260905220022 21 348 0.0 3.2 0.00 0.00 0.00 79 1012.1
20260905214522 21 1 0.0 4.8 0.00 0.00 0.00 77 1012.1
20260905213021 21 338 1.6 9.7 0.00 0.00 0.00 75 1011.9